This is the latest recevied weather packets stored in our database for station/object N4CRH-13. If no packets are shown the sender has not sent any weather packets the latest 10 day(s).
| Time | Temp. | Humidity | Pressure | Rain* | Wind** | Luminosity | Snow |
|---|---|---|---|---|---|---|---|
| 1777632655 | -1.67° C | 97% | 1297.8 hPa | 0 mm | - | 0 W/m² | - |
| 1777632352 | -1.67° C | 97% | 1298 hPa | 0 mm | - | 0 W/m² | - |
| 1777632049 | -1.67° C | 96% | 1298 hPa | 0 mm | - | 0 W/m² | - |
| 1777631747 | -1.67° C | 96% | 1298.1 hPa | 0 mm | - | 0 W/m² | - |
| 1777631444 | -1.67° C | 96% | 1298 hPa | 0 mm | - | 0 W/m² | - |
| 1777631141 | -1.67° C | 96% | 1297.8 hPa | 0 mm | - | 0 W/m² | - |
| 1777630838 | -1.11° C | 96% | 1298 hPa | 0 mm | - | 0 W/m² | - |
| 1777630534 | -1.11° C | 96% | 1298 hPa | 0 mm | - | 0 W/m² | - |
| 1777630231 | -1.11° C | 95% | 1297.8 hPa | 0 mm | - | 0 W/m² | - |
| 1777629929 | -1.11° C | 95% | 1298 hPa | 0 mm | - | 0 W/m² | - |
| 1777629627 | -1.11° C | 95% | 1298.1 hPa | 0 mm | - | 0 W/m² | - |
| 1777629322 | -0.56° C | 94% | 1298 hPa | 0 mm | - | 0 W/m² | - |
| 1777629018 | 0° C | 94% | 1298.1 hPa | 0 mm | - | 0 W/m² | - |
| 1777628715 | 0° C | 92% | 1298.2 hPa | 0 mm | - | 0 W/m² | - |
| 1777628410 | 0° C | 92% | 1298.2 hPa | 0 mm | - | 0 W/m² | - |
| 1777628102 | 0.56° C | 90% | 1297.9 hPa | 0 mm | - | 0 W/m² | - |
| 1777627797 | 0.56° C | 89% | 1298.1 hPa | 0 mm | - | 0 W/m² | - |
| 1777627495 | 0.56° C | 89% | 1298.1 hPa | 0 mm | - | 0 W/m² | - |
| 1777627191 | 0.56° C | 90% | 1298 hPa | 0 mm | - | 0 W/m² | - |
| 1777626889 | 0.56° C | 92% | 1298.1 hPa | 0 mm | - | 0 W/m² | - |
| 1777626585 | 0.56° C | 96% | 1298.2 hPa | 0 mm | - | 0 W/m² | - |
| 1777626279 | 0.56° C | 96% | 1298.2 hPa | 0 mm | - | 0 W/m² | - |
| 1777625979 | 0.56° C | 98% | 1298.2 hPa | 0 mm | - | 0 W/m² | - |
| 1777625674 | 0.56° C | 98% | 1298.4 hPa | 0 mm | - | 0 W/m² | - |
| 1777625370 | 0° C | 99% | 1298.4 hPa | 0 mm | - | 0 W/m² | - |
* Rain latest hour (hover to see other rain measurements)
** Current wind speed in m/s (hover to see current wind gust speed)